Location: Blackwater Beach
(38.5801°N, 75.1577°W)
Time: 03:08:01
(UTC+00:00)

Cosmos 2297 Rocket - Pass Details

Date: 26 May 2026
Orbit: 838 x 842 km, 71.0° (Epoch: 9 June)

Event Time Altitude Azimuth Distance (km) Brightness Sun altitude
Exits shadow 01:52:58 17° 175° (S) 1,998 3.7 -16.3°
Maximum altitude 01:57:05 49° 107° (ESE) 1,075 2.4 -16.8°
Drops below altitude 10° 02:02:29 10° 34° (NE) 2,460 4.8 -17.6°
Sets 02:05:00 0° 29° (NNE) 3,399 5.6 -17.9°
